Weather

Currently

Time Weather Temperature Precipitation Clouds Wind Wind Bumps Pressure
05:56 3,3 °C 0,8 °C 0,0 mm/h 67 % 1,0 m/s 1015,2 mb

Current values recorded by the weather station installed in the spa park. Data updated at 5:56.


Forecast

Time Weather Temperature Precipitation Clouds Wind Wind Bumps Pressure
04:00 1,5 °C 0,05 mm/h 85 % 3,8 m/s 10,1 m/s 997 hPa
05:00 1,2 °C 0,18 mm/h 99 % 3,9 m/s 9,6 m/s 996 hPa
06:00 0,7 °C 0,33 mm/h 100 % 4,2 m/s 10,2 m/s 997 hPa
07:00 0,5 °C 0,14 mm/h 100 % 3,7 m/s 10,1 m/s 997 hPa
08:00 0,7 °C 0,24 mm/h 91 % 4,9 m/s 11,9 m/s 997 hPa
09:00 1,3 °C 0,06 mm/h 38 % 5,4 m/s 13,1 m/s 997 hPa
10:00 1,8 °C 0,28 mm/h 30 % 6 m/s 14,8 m/s 997 hPa
11:00 2,3 °C 0,07 mm/h 31 % 5,7 m/s 14,7 m/s 997 hPa
12:00 2,7 °C 0,17 mm/h 79 % 5,2 m/s 13,8 m/s 997 hPa
13:00 2,4 °C 0,26 mm/h 46 % 5,4 m/s 13,8 m/s 997 hPa
14:00 2,6 °C 0,02 mm/h 48 % 5,3 m/s 13,7 m/s 997 hPa
15:00 2 °C 0,18 mm/h 82 % 5,6 m/s 13,7 m/s 998 hPa
16:00 1,5 °C 0,25 mm/h 12 % 5,3 m/s 14,4 m/s 998 hPa
17:00 0,6 °C 0,13 mm/h 44 % 5,4 m/s 13,5 m/s 999 hPa
18:00 0,1 °C 0,2 mm/h 96 % 4,5 m/s 12,8 m/s 1000 hPa
19:00 -0,1 °C 0,18 mm/h 93 % 4,4 m/s 11,5 m/s 1001 hPa
20:00 -0,2 °C 0,04 mm/h 93 % 4,4 m/s 10,8 m/s 1002 hPa
21:00 -0,2 °C 0,3 mm/h 100 % 4,1 m/s 10,6 m/s 1003 hPa
22:00 -0,1 °C 1,33 mm/h 48 % 4,3 m/s 10,2 m/s 1003 hPa
23:00 -0,6 °C 0,06 mm/h 64 % 3,8 m/s 10,2 m/s 1004 hPa

Forecast data of ČHMÚ (Czech hydrometeorological institute) based on Aladin numerical model for Konstantinovy Lázně area. The data is updated daily at 6:00.

Time Weather Temperature Precipitation Clouds Wind Wind Bumps Pressure
00:00 -0,8 °C 0,09 mm/h 61 % 3,5 m/s 8,9 m/s 1005 hPa
01:00 -1 °C 0,04 mm/h 23 % 3,9 m/s 9,1 m/s 1005 hPa
02:00 -0,9 °C 0,14 mm/h 36 % 3,9 m/s 9,2 m/s 1006 hPa
03:00 -0,9 °C 0,04 mm/h 31 % 4,3 m/s 10 m/s 1006 hPa
04:00 -1 °C 0,03 mm/h 32 % 3,8 m/s 10,4 m/s 1007 hPa
05:00 -1,1 °C 0,04 mm/h 67 % 3,7 m/s 9,1 m/s 1007 hPa
06:00 -1,1 °C 0,03 mm/h 86 % 4,1 m/s 9,7 m/s 1008 hPa
07:00 -1,2 °C 0,06 mm/h 33 % 4,3 m/s 10,1 m/s 1008 hPa
08:00 -1,4 °C 0,02 mm/h 13 % 4,1 m/s 10,4 m/s 1009 hPa
09:00 -0,8 °C 0,01 mm/h 61 % 3,7 m/s 9,6 m/s 1009 hPa
10:00 -0,2 °C 0,06 mm/h 72 % 4,2 m/s 9,9 m/s 1009 hPa
11:00 0,1 °C 0,02 mm/h 64 % 4,4 m/s 10,8 m/s 1008 hPa
12:00 0,5 °C 0,03 mm/h 88 % 4,1 m/s 10,7 m/s 1007 hPa
13:00 1,3 °C 0,05 mm/h 92 % 3,4 m/s 10 m/s 1006 hPa
14:00 1,3 °C 0,08 mm/h 96 % 4 m/s 9,9 m/s 1005 hPa
15:00 1,6 °C 0 mm/h 98 % 3,5 m/s 9,8 m/s 1003 hPa
16:00 1,4 °C 0,01 mm/h 99 % 3,3 m/s 8,8 m/s 1002 hPa
17:00 1 °C 0,03 mm/h 100 % 3 m/s 7,9 m/s 1000 hPa
18:00 0,3 °C 0,08 mm/h 100 % 3,5 m/s 8,4 m/s 998 hPa
19:00 0 °C 0,32 mm/h 100 % 3,6 m/s 9,1 m/s 997 hPa
20:00 -0,3 °C 1,43 mm/h 100 % 3,7 m/s 9 m/s 995 hPa
21:00 -0,7 °C 2,5 mm/h 100 % 4,6 m/s 11,6 m/s 993 hPa
22:00 -0,7 °C 2,77 mm/h 100 % 4,2 m/s 10,4 m/s 991 hPa
23:00 -0,4 °C 3,04 mm/h 100 % 3,1 m/s 9,9 m/s 989 hPa

Forecast data of ČHMÚ (Czech hydrometeorological institute) based on Aladin numerical model for Konstantinovy Lázně area. The data is updated daily at 6:00.